Temp
9 10 10 10 10 10 11 11 11 12 13 14 14 15 16 16 16 17 14 15 14 9 11 12 13 12 12 12 11 11 11 10 6 9 7 6 5 8 10 11 9 9 8 8 5 4 11 11 14 13 12 11 10 9
9 10 10 10 10 10 10 11 12 12 13 14 14 15 16 16 17 19 15 15 14 10 11 13 13 13 13 14 10 10 13 11 10 7 3 4 5 7 7 10 10 11 10 9 9 10 11 11 12 12 10 10 9 8
9 9 10 10 10 10 10 11 12 12 13 14 15 16 16 16 17 17 15 15 16 8 10 11 12 14 15 14 15 11 8 10 9 7 5 4 8 5 7 7 10 10 10 8 10 13 10 10 11 10 9 10 9 8
10 10 10 10 10 10 10 11 12 13 13 14 15 16 16 17 17 18 17 14 15 6 7 10 13 12 13 15 15 15 10 9 6 5 4 4 6 7 5 7 7 10 10 10 9 10 10 10 9 10 9 9 8 8
9 10 10 10 11 10 10 10 12 13 13 14 15 15 16 17 18 18 16 13 14 12 8 6 10 11 11 13 12 12 11 9 7 6 5 7 3 5 5 5 7 9 10 9 9 12 12 12 11 8 8 8 8 7
9 9 9 11 10 10 10 11 12 12 13 13 14 14 15 16 17 18 11 14 14 13 8 8 7 8 10 11 10 9 9 7 7 7 5 5 7 6 8 9 10 11 10 10 11 12 9 9 8 8 8 7 7 7
9 9 10 9 9 9 10 11 11 12 13 14 14 14 15 16 18 10 9 10 14 14 6 7 6 7 7 8 6 7 7 6 7 6 5 6 5 7 6 8 10 10 10 10 10 9 10 9 9 8 7 6 6 5
8 10 10 9 9 9 10 10 11 11 12 13 13 14 14 15 14 11 10 13 13 11 5 6 6 6 6 6 6 6 5 6 6 7 6 5 6 5 8 8 8 8 8 9 8 8 8 7 6 6 6 6 4 3
8 8 8 9 9 10 10 10 10 11 12 12 13 14 14 13 8 10 11 12 13 11 5 2 7 7 5 5 4 5 5 7 5 6 6 6 6 8 7 5 6 7 7 8 7 6 6 5 5 4 4 3 2 2
8 8 8 9 9 9 9 10 10 11 12 12 14 11 5 7 8 10 12 5 4 3 5 4 5 6 7 4 5 5 4 5 5 4 6 6 7 5 4 3 4 4 5 7 5 5 4 3 3 3 2 2 2 2
7 7 8 8 8 8 9 9 10 11 12 12 5 4 8 9 9 3 4 5 6 5 5 5 5 6 4 7 5 3 5 6 8 5 7 6 7 5 3 3 3 3 3 3 3 3 3 2 2 1 1 2 2 3
5 6 7 7 7 8 8 9 10 11 9 9 8 8 9 5 4 6 6 5 5 5 4 5 5 5 4 3 6 5 6 5 7 5 7 7 4 4 4 4 4 4 4 3 3 3 3 3 3 3 3 3 2 2
4 5 5 6 7 7 8 8 10 10 10 9 6 4 5 3 7 7 8 7 7 4 4 4 5 3 4 3 4 6 7 7 4 7 7 6 4 4 4 3 3 2 2 3 3 3 3 3 3 3 2 2 2 2
5 5 5 5 5 6 6 7 8 9 10 3 5 7 6 6 5 5 5 5 3 3 3 3 4 4 3 5 4 7 5 5 7 6 4 5 4 2 2 2 3 1 -0 2 2 2 2 2 2 3 3 3 3 3
5 6 6 5 6 6 6 7 7 8 5 3 4 5 4 2 2 2 2 3 2 2 3 4 4 4 4 5 4 4 4 3 3 2 4 2 2 2 2 2 2 1 -0 1 2 2 2 2 2 2 2 2 2 2
6 7 4 5 6 7 7 7 7 6 3 3 2 3 3 4 3 3 3 3 2 2 2 3 4 4 4 3 3 3 3 1 2 3 1 1 1 2 2 2 2 2 2 2 2 2 2 2 1 1 2 2 2 1
6 2 4 5 6 7 7 7 6 1 1 3 3 2 2 3 3 3 2 2 2 3 4 3 2 3 2 2 3 3 2 2 3 3 2 2 2 2 2 2 2 2 2 2 2 1 1 0 1 -0 -1 -1 -1 -1
2 3 5 6 7 7 5 4 1 1 3 2 3 2 1 1 2 2 1 1 2 3 2 2 2 0 0 2 1 1 0 -0 -0 0 0 2 2 2 2 2 2 1 1 -0 -1 -1 -1 -2 -3 -3 -4 -4 -4 -4
3 4 4 5 6 5 0 1 1 2 2 1 0 0 0 0 -0 0 0 -0 -1 -1 -1 -2 -1 -1 -0 -1 -2 1 1 -2 -1 0 -0 0 1 1 0 -0 -1 -1 -2 -3 -3 -4 -4 -3 -4 -5 -6 -6 -6 -5
4 4 5 5 5 4 0 -1 2 1 2 1 0 0 0 0 -0 0 1 0 -0 -1 -1 -1 -1 -2 -2 -2 -2 -2 -2 -2 -2 -2 -3 -3 -2 -2 -3 -3 -4 -4 -5 -5 -5 -5 -6 -6 -7 -8 -9 -8 -7 -7
4 3 4 5 2 2 -1 -1 1 1 1 1 0 0 -0 -0 1 1 1 -1 -1 -3 -1 -2 -4 -3 -1 -2 -1 -0 -1 1 -2 -3 -3 -3 -4 -4 -5 -6 -6 -7 -7 -8 -8 -9 -9 -9 -10 -10 -11 -10 -10 -10
2 2 1 1 -1 -1 0 -0 0 -0 1 0 0 0 0 0 0 0 -1 -0 -0 -2 -2 -3 -2 -2 -2 -3 -3 -3 -3 -3 -3 -4 -3 -4 -6 -6 -7 -9 -9 -10 -10 -10 -11 -11 -11 -12 -12 -12 -12 -12 -12 -12
2 1 1 1 -3 -3 -1 0 0 1 2 1 0 0 0 -0 -0 -1 -0 1 -0 -2 -3 -2 -3 -3 -3 -4 -5 -5 -5 -5 -6 -6 -6 -7 -7 -8 -9 -11 -11 -12 -13 -13 -13 -13 -13 -14 -14 -14 -14 -14 -14 -14
1 -0 0 1 -1 -1 -2 -5 -2 -2 -3 -0 1 0 -0 -1 -2 -1 -0 -1 -1 -3 -2 -3 -3 -3 -4 -5 -6 -7 -7 -7 -8 -8 -7 -8 -9 -10 -11 -11 -13 -13 -14 -15 -15 -15 -15 -15 -15 -15 -15 -15 -15 -15
-3 -3 -5 -7 -3 -7 -3 -7 -3 -1 -4 -6 -2 -3 -2 -5 -3 -2 -2 -2 -3 -4 -4 -4 -3 -4 -4 -5 -7 -8 -8 -7 -8 -9 -11 -10 -11 -11 -12 -13 -13 -14 -15 -16 -16 -16 -16 -16 -16 -16 -16 -16 -17 -17
-4 -5 -4 -8 -8 -5 -7 -5 -7 -5 -5 -3 -3 -4 -6 -5 -3 -3 -2 -4 -4 -5 -6 -5 -5 -6 -7 -7 -8 -9 -10 -9 -9 -11 -13 -12 -12 -13 -15 -16 -16 -15 -16 -16 -17 -17 -17 -17 -17 -17 -17 -16 -16 -16
-5 -6 -5 -3 -3 -3 -4 -6 -5 -3 -2 -0 -2 -2 -1 -0 -2 -4 -5 -6 -6 -7 -7 -7 -6 -7 -9 -10 -11 -10 -10 -9 -10 -11 -13 -13 -14 -15 -15 -16 -17 -16 -17 -17 -17 -17 -18 -18 -18 -17 -17 -16 -16 -17
-5 -7 -4 -6 -4 -3 -2 -3 -3 -2 -3 -1 -1 -1 -1 -3 -5 -7 -7 -8 -8 -8 -9 -9 -9 -10 -11 -11 -11 -11 -12 -12 -12 -13 -13 -14 -15 -15 -16 -16 -16 -17 -17 -17 -17 -17 -17 -18 -18 -17 -17 -17 -17 -17
-4 -4 -4 -4 -4 -2 -2 -2 -1 -1 -2 -1 -2 -3 -6 -9 -11 -10 -10 -9 -9 -9 -11 -11 -12 -11 -12 -12 -12 -12 -12 -12 -12 -20 -20 -23 -16 -16 -17 -17 -17 -17 -17 -17 -17 -17 -17 -18 -17 -18 -18 -18 -18 -18
-4 -5 -4 -6 -3 -3 -4 -4 -4 -5 -5 -6 -7 -8 -9 -11 -12 -11 -10 -10 -11 -12 -12 -12 -12 -12 -13 -13 -14 -14 -15 -15 -15 -15 -21 -22 -17 -17 -17 -17 -17 -18 -18 -18 -18 -17 -18 -18 -18 -18 -18 -19 -19 -20
-6 -6 -6 -6 -5 -6 -6 -4 -3 -3 -5 -8 -9 -11 -11 -13 -12 -12 -12 -12 -12 -13 -12 -13 -13 -13 -14 -14 -14 -15 -15 -16 -16 -16 -16 -16 -17 -17 -17 -18 -18 -18 -19 -19 -19 -19 -19 -19 -19 -20 -20 -20 -21 -21
-4 -4 -6 -5 -4 -7 -10 -8 -8 -5 -6 -6 -11 -16 -16 -16 -18 -14 -13 -13 -13 -13 -13 -14 -14 -14 -15 -15 -15 -16 -16 -16 -16 -17 -17 -17 -17 -17 -18 -18 -18 -18 -19 -19 -19 -19 -20 -20 -20 -21 -21 -22 -22 -22
-9 -11 -10 -11 -9 -7 -11 -15 -14 -12 -11 -10 -15 -15 -18 -16 -16 -14 -14 -13 -13 -14 -14 -14 -14 -15 -15 -15 -16 -16 -17 -17 -17 -17 -17 -18 -18 -18 -18 -18 -19 -19 -19 -20 -20 -20 -20 -21 -21 -21 -22 -22 -22 -23
Height
632 640 648 655 662 669 673 679 682 684 686 688 692 697 701 707 715 722 725 726 730 744 749 748 747 753 760 764 778 782 789 793 808 815 828 834 843 826 821 813 823 828 837 839 865 873 829 795 793 802 792 788 788 794
642 649 655 661 667 673 678 681 683 687 689 690 695 698 701 708 715 714 720 726 729 734 750 750 750 751 751 752 764 777 774 781 787 811 832 833 837 828 829 823 814 820 814 824 821 812 793 791 786 783 786 786 787 789
649 655 658 663 670 676 680 683 687 690 690 694 697 699 704 710 716 724 729 726 727 742 753 753 755 754 752 752 754 768 780 775 782 786 808 821 820 828 830 826 810 805 805 816 806 785 790 788 784 783 784 783 784 785
653 659 664 671 677 681 686 692 693 692 695 697 698 702 707 712 717 720 720 724 726 740 763 763 756 756 756 753 754 754 758 769 779 788 804 814 818 811 825 815 818 802 802 802 805 790 787 782 781 778 780 782 783 785
661 666 673 679 682 687 694 696 694 695 699 701 704 707 709 712 715 716 720 726 727 733 762 769 761 763 760 757 756 758 761 768 780 794 801 805 812 812 817 819 813 794 792 803 799 779 780 778 774 776 778 780 782 785
669 676 682 681 689 695 698 697 697 700 702 705 709 712 713 715 717 718 728 731 730 731 747 771 770 768 765 764 763 765 767 772 780 787 798 799 797 803 810 805 784 782 780 780 780 777 779 777 777 777 779 782 786 790
676 682 685 692 696 699 701 702 703 706 709 711 713 716 717 717 717 725 737 737 734 734 749 774 780 772 770 769 772 774 774 778 781 790 798 799 801 800 809 806 785 784 782 780 778 779 778 777 778 779 780 786 792 799
680 684 690 696 701 704 704 705 708 710 713 715 716 718 720 722 726 733 738 737 736 738 749 777 784 780 775 780 783 782 784 784 789 793 798 801 802 805 800 794 789 786 782 780 780 781 781 782 784 787 789 792 795 802
686 692 696 701 704 706 707 711 714 716 718 719 720 722 725 728 737 742 742 741 741 746 768 781 780 785 780 786 788 788 788 791 797 797 797 799 804 799 801 800 794 790 788 785 784 784 786 789 794 797 800 804 807 811
692 696 699 703 707 711 714 717 719 721 722 723 724 728 744 745 744 744 745 750 754 761 767 780 784 784 783 789 792 795 796 799 806 806 798 800 799 805 808 806 800 793 786 783 789 794 795 799 803 806 807 812 814 814
698 703 707 711 714 716 719 722 724 725 725 725 734 745 746 745 746 754 767 770 772 779 779 783 784 782 787 786 793 800 801 800 794 807 798 801 800 807 810 806 804 800 797 796 797 801 805 806 809 812 814 814 813 813
705 708 712 716 719 721 724 726 728 727 730 734 736 744 747 753 761 767 777 780 779 783 784 782 785 785 789 789 790 798 797 802 797 803 800 797 810 810 809 807 806 805 803 804 806 808 810 810 811 811 812 812 812 812
715 716 718 720 723 725 727 730 732 733 734 738 742 753 756 769 766 771 770 776 778 785 786 787 787 791 790 792 796 795 794 796 803 798 795 802 809 810 811 812 812 811 810 809 809 809 810 811 811 812 812 812 812 811
725 726 726 728 729 730 732 733 736 736 738 751 757 759 766 768 775 776 776 778 787 787 787 787 790 791 795 793 797 790 800 801 793 797 810 806 810 815 815 815 815 815 814 813 813 813 813 813 812 811 811 810 809 809
734 734 734 735 737 737 737 738 739 740 750 762 764 770 777 783 784 784 784 785 788 788 788 789 792 793 795 796 800 802 807 811 812 816 808 813 815 817 817 816 817 817 817 816 815 815 815 815 814 813 812 811 810 810
737 736 739 741 741 741 742 743 743 749 761 770 775 778 782 780 784 786 787 788 789 790 791 792 793 796 798 803 807 808 809 821 817 810 814 815 817 816 816 817 817 817 817 817 817 816 816 815 815 814 812 811 810 808
742 748 748 745 744 744 745 745 749 761 771 774 778 781 782 783 785 787 788 790 790 792 792 795 802 804 806 810 808 807 813 809 808 809 811 812 813 815 815 817 818 818 818 818 818 818 818 816 815 813 812 810 808 806
751 753 751 749 747 747 749 754 762 772 778 783 782 786 786 787 788 790 791 792 793 794 796 799 800 810 815 811 815 807 807 807 808 809 810 812 813 814 816 818 818 819 819 819 819 819 818 817 817 817 815 812 808 805
757 756 754 752 750 752 759 767 770 779 785 787 789 790 790 791 792 792 793 794 795 796 799 806 812 813 812 808 810 805 805 808 809 810 812 814 814 815 817 818 819 820 821 822 822 822 822 822 821 820 818 814 810 806
760 759 756 755 753 758 769 777 776 782 786 790 791 793 794 795 796 795 795 796 799 801 805 808 809 807 806 803 802 803 803 804 807 813 817 818 818 818 821 822 823 824 824 825 825 824 823 822 821 819 817 814 810 806
763 763 761 759 761 767 777 783 783 787 789 792 795 795 798 797 797 798 798 799 802 808 806 805 807 804 802 803 803 803 804 806 809 810 815 821 823 823 824 826 826 826 826 826 826 825 824 824 823 819 816 813 810 806
771 769 766 768 773 777 784 788 789 790 792 795 796 797 800 801 800 800 801 802 803 807 806 806 805 805 806 807 809 808 810 810 813 815 817 820 824 826 828 830 829 829 829 829 829 829 827 825 822 818 815 811 807 802
775 775 778 779 784 790 797 791 792 792 794 797 798 800 801 802 802 802 804 802 804 807 807 808 808 807 810 813 813 815 816 817 819 821 823 825 827 829 831 831 831 831 831 831 830 829 827 824 821 817 813 808 803 797
781 785 788 789 793 800 800 805 799 802 803 800 798 800 803 803 806 806 805 805 808 809 809 809 811 812 815 817 820 822 824 824 825 826 828 828 830 832 833 834 834 834 834 833 830 828 825 822 819 815 811 806 802 797
793 802 802 812 803 814 810 819 809 804 815 817 808 810 807 812 814 811 812 810 813 813 813 812 812 814 817 822 826 828 828 828 829 830 833 833 834 835 836 836 835 835 833 830 827 825 822 819 816 813 809 805 801 796
805 807 808 818 818 813 820 817 821 815 815 810 807 808 811 813 813 814 811 817 817 818 818 817 818 820 823 825 828 830 831 830 831 832 837 836 836 836 837 836 835 834 832 830 827 823 820 817 815 811 807 803 799 796
814 815 808 804 805 806 809 812 810 810 806 799 804 806 803 800 809 819 821 822 822 824 823 822 822 823 827 831 832 832 831 831 832 834 837 838 838 838 837 837 835 834 831 828 826 823 819 816 812 809 806 803 800 797
811 813 813 813 810 807 806 809 808 805 806 800 801 802 803 811 821 828 827 828 827 827 827 827 828 829 831 833 835 835 835 835 836 838 839 839 839 838 837 836 835 832 829 827 824 820 817 814 811 808 805 802 799 796
812 810 810 813 811 807 808 808 806 805 806 802 803 811 822 830 834 832 831 831 831 830 831 832 834 835 836 837 838 838 838 838 839 840 841 841 838 838 836 834 832 829 827 823 820 817 814 812 809 807 804 801 798 795
813 810 812 815 811 809 812 811 811 809 810 812 816 824 830 835 836 834 834 834 834 835 836 837 838 838 839 839 840 840 840 840 840 839 839 839 837 836 834 832 829 826 823 820 817 815 813 810 808 805 802 799 797 794
811 812 814 815 815 814 812 809 808 809 811 817 821 826 833 837 839 839 839 839 839 840 840 840 840 840 841 841 840 840 840 840 839 838 838 836 835 834 832 830 827 824 821 818 815 813 810 808 806 803 801 799 797 795
812 813 817 815 814 815 813 815 816 812 815 817 828 833 838 841 848 843 844 843 843 842 842 842 842 842 842 841 841 841 841 840 838 837 836 835 833 832 830 827 825 822 819 816 814 812 809 807 805 803 801 799 797 795
822 824 823 826 822 818 824 828 832 829 826 827 836 836 840 841 847 845 845 845 845 844 844 843 842 842 842 842 841 840 840 838 837 836 834 833 831 829 827 825 822 819 817 815 813 810 808 806 805 803 801 799 797 794
Wind_Speed
42 39 36 33 32 31 27 25 21 19 19 20 19 21 26 29 26 16 5 4 3 3 2 2 2 5 3 3 5 5 4 3 3 4 3 3 3 5 2 4 6 7 6 4 3 2 7 6 3 7 6 2 5 7
41 38 35 33 31 29 26 23 22 18 19 19 17 18 23 28 25 8 6 11 12 5 3 7 15 12 2 5 6 2 4 4 5 5 1 3 2 1 2 3 2 2 6 5 8 6 5 6 4 3 3 4 5 7
36 35 33 31 28 26 24 22 21 18 20 17 17 19 23 26 28 25 13 10 10 4 4 4 4 6 14 3 4 5 2 5 3 2 4 2 3 4 4 5 2 4 4 2 2 4 7 8 5 5 5 5 4 4
33 32 31 29 27 24 22 19 21 21 20 19 18 19 21 20 21 21 11 9 10 4 4 3 7 5 13 4 2 2 11 8 7 3 3 3 3 3 3 3 3 4 4 4 5 8 4 9 8 6 5 4 5 5
32 31 29 27 24 21 18 17 21 21 21 20 19 21 21 20 21 25 24 16 9 5 4 1 1 10 16 12 17 18 18 6 3 3 2 3 2 4 1 1 3 5 6 4 6 6 3 6 4 4 7 6 7 7
34 29 26 25 20 19 17 18 20 19 18 17 20 21 20 15 11 6 4 12 11 6 4 2 3 5 12 14 20 13 7 4 3 3 2 1 1 3 4 3 6 4 3 3 4 1 4 4 5 2 5 6 6 9
32 28 28 24 21 17 18 19 19 19 18 16 16 13 11 9 9 9 5 2 6 6 3 3 3 4 7 5 5 4 7 3 3 2 2 2 1 3 3 4 3 6 6 6 5 3 3 2 2 5 10 17 22 20
29 26 24 21 18 18 18 18 18 19 21 23 23 22 21 19 15 12 18 11 8 11 4 3 2 3 8 2 2 3 2 3 4 2 1 2 1 1 3 4 7 6 7 5 6 4 1 7 13 11 17 18 15 13
28 27 24 22 18 17 17 17 17 17 17 16 15 13 7 8 5 3 6 12 16 9 4 3 4 3 3 2 1 3 2 3 2 1 1 2 1 3 4 9 9 8 5 6 5 9 12 15 14 14 15 14 11 5
25 24 22 18 17 16 16 16 16 15 13 11 5 6 3 4 3 4 3 4 5 4 4 3 1 2 2 1 2 2 2 1 1 3 1 1 1 4 7 6 7 9 6 4 8 8 13 14 12 12 12 7 2 7
25 23 21 21 19 16 15 14 13 12 6 5 4 2 2 6 4 4 3 4 2 4 3 1 1 3 3 3 2 1 1 1 1 3 2 1 1 3 5 8 9 13 18 18 18 17 16 13 8 6 3 5 5 4
26 21 19 18 17 16 15 14 11 7 6 8 14 8 4 5 4 6 2 2 3 2 2 1 1 2 1 2 3 1 2 1 3 1 1 2 2 5 5 7 8 12 16 16 19 15 12 8 4 4 3 2 1 1
33 29 25 18 15 15 12 11 12 22 13 6 5 4 3 3 5 4 4 1 1 0 1 1 2 1 1 3 3 2 3 2 1 2 1 1 5 2 4 5 8 9 9 8 8 8 8 5 3 1 1 1 2 4
32 30 28 25 20 17 16 18 14 8 6 4 3 4 3 2 2 1 2 2 1 2 2 2 2 2 1 3 1 2 1 1 2 2 2 1 3 4 3 3 3 2 4 5 5 4 4 3 2 4 5 6 7 8
27 27 26 24 17 15 14 13 12 10 6 3 3 3 2 2 2 2 1 2 2 1 1 2 2 2 2 2 2 3 2 1 2 3 1 1 5 4 5 2 3 2 1 3 3 3 3 4 4 6 5 5 7 9
13 21 29 19 14 11 9 8 8 5 4 3 4 3 1 3 2 1 2 2 1 1 1 2 2 2 1 2 2 3 4 4 2 1 1 3 5 6 5 5 3 2 3 3 3 4 5 6 7 9 11 12 12 15
18 12 21 18 11 10 6 5 5 5 3 3 2 3 2 3 2 2 1 1 1 2 1 2 3 3 2 2 0 1 3 3 2 3 5 6 6 5 5 5 0 2 5 7 7 10 11 12 13 17 16 20 22 24
19 18 17 17 7 7 6 8 4 4 5 3 2 2 2 2 2 2 2 2 2 1 1 2 3 2 3 4 2 3 2 1 1 1 2 2 2 4 5 2 5 6 8 11 13 13 16 18 15 13 17 20 21 20
17 17 15 14 10 4 3 5 5 3 3 2 1 1 2 2 2 3 2 4 3 2 3 2 3 2 3 2 2 2 2 2 2 2 3 8 8 11 12 12 13 13 14 14 15 14 14 13 12 14 17 17 17 19
13 14 15 14 8 5 4 3 3 4 2 1 2 2 2 2 1 1 2 2 2 1 3 1 3 2 3 2 2 2 2 3 3 3 3 5 12 16 15 13 13 11 12 13 13 14 13 13 15 18 20 18 18 21
13 19 15 9 7 11 3 3 3 2 2 2 1 1 1 2 2 2 1 1 3 1 1 1 1 2 6 10 11 12 9 4 2 2 3 4 9 13 12 13 12 13 12 13 12 14 17 14 16 19 22 19 21 21
10 13 8 11 9 5 4 9 2 1 2 1 2 1 2 1 1 1 1 1 1 1 1 1 1 2 3 5 9 14 13 16 16 16 16 11 4 6 10 11 13 12 13 13 12 12 15 16 20 24 23 25 24 24
9 7 6 9 5 6 2 8 3 3 2 1 1 2 0 1 0 2 1 1 1 3 2 3 7 13 15 13 17 18 15 14 13 12 12 12 11 10 10 12 15 16 12 13 15 14 16 20 22 25 26 26 26 26
7 5 4 4 4 2 3 4 2 2 3 1 2 1 1 1 1 1 1 1 2 3 3 8 9 8 12 13 11 12 10 12 14 15 12 11 11 12 11 9 10 12 13 12 15 17 18 20 22 26 27 27 26 23
5 5 4 4 2 5 3 4 3 2 1 2 2 1 2 2 2 1 1 1 2 3 3 6 9 8 5 5 9 10 11 9 9 11 12 11 11 10 9 9 7 9 16 18 20 20 21 22 25 25 26 25 25 24
5 3 3 2 2 3 2 1 1 3 1 2 3 0 1 2 2 2 1 3 2 3 4 5 5 5 7 9 7 6 7 6 8 11 7 10 12 12 10 9 10 10 17 15 17 19 20 21 23 24 25 25 23 22
3 3 2 1 1 0 1 1 1 1 2 2 2 1 1 2 1 2 1 6 3 7 10 11 10 11 11 10 10 9 7 5 5 10 12 9 9 11 12 12 11 13 15 14 15 15 17 19 21 21 21 22 17 17
3 1 1 3 2 1 1 1 1 2 2 1 2 2 1 3 2 2 4 7 11 13 15 16 16 17 17 15 12 10 11 13 14 10 7 5 3 4 11 12 13 14 14 14 15 14 15 14 16 17 16 15 16 16
1 2 2 2 2 1 2 2 2 2 3 1 1 2 2 2 4 5 6 7 8 11 14 15 14 12 12 11 11 11 11 5 1 4 2 3 5 3 11 14 16 16 17 17 15 15 12 10 11 12 12 12 12 12
2 1 2 1 1 1 1 1 2 1 5 3 4 3 3 3 8 6 5 6 10 13 12 10 7 4 6 4 6 6 6 7 8 6 2 3 6 10 12 15 17 19 18 18 18 15 12 12 13 13 13 13 13 13
1 2 2 1 1 2 2 3 2 2 4 3 5 3 2 2 5 11 11 11 9 8 7 8 8 6 5 6 5 3 2 5 8 8 9 9 9 10 13 15 17 18 18 17 17 14 14 14 14 13 13 13 13 13
3 2 1 2 1 2 6 3 3 2 3 2 2 3 3 3 2 3 3 3 3 6 7 7 5 3 3 4 5 4 5 7 8 9 10 10 10 12 13 15 17 17 16 16 15 13 13 13 12 12 12 12 13 13
2 3 3 2 3 3 2 3 4 3 4 2 2 1 1 3 2 1 4 5 6 7 7 6 5 4 4 4 5 5 7 10 10 10 10 10 12 13 13 15 17 16 15 14 14 13 11 11 11 11 11 12 12 13
Wind_Direction
148 146 146 146 145 144 140 140 135 126 127 131 142 157 167 175 179 187 118 176 157 101 23 9 50 131 118 118 134 182 74 338 42 71 123 203 144 219 135 180 177 168 155 198 102 76 278 172 81 168 215 221 187 181
143 143 141 137 137 136 132 129 124 119 120 122 131 143 151 160 171 134 33 98 102 83 124 88 74 57 29 152 125 19 156 158 164 90 93 106 139 149 132 238 55 236 190 182 186 215 230 230 230 263 183 190 207 186
138 136 129 127 129 128 124 119 119 116 108 112 119 130 144 153 156 184 171 138 95 90 36 48 358 5 38 56 145 118 302 150 112 120 148 144 146 132 163 238 197 245 164 200 88 261 237 241 249 237 204 217 195 181
130 126 124 128 128 123 118 123 118 108 104 103 105 120 135 153 162 158 124 104 93 98 105 291 7 28 0 58 158 135 130 91 96 73 105 134 143 181 198 194 172 205 139 182 262 279 285 268 237 237 213 184 164 138
131 125 128 127 123 121 124 119 108 105 102 100 107 109 118 124 126 109 87 64 82 116 143 204 3 18 34 77 92 110 106 105 110 83 98 197 132 114 77 68 259 187 191 167 231 237 204 251 311 190 191 191 155 130
134 131 132 119 124 128 124 110 103 101 101 104 115 117 112 110 112 109 51 38 50 86 99 108 325 9 21 60 62 52 51 74 82 122 177 116 29 102 140 200 264 228 234 198 264 280 226 294 307 182 135 128 104 97
143 134 123 127 130 129 119 110 105 102 97 109 111 108 87 72 82 69 109 326 46 66 85 71 355 343 352 21 39 20 32 62 83 99 72 118 78 103 131 215 333 338 319 312 258 169 286 241 315 117 104 102 90 79
145 141 126 132 133 126 116 109 108 106 104 101 103 101 95 84 77 57 48 53 54 90 65 107 279 21 10 30 41 356 31 30 26 94 62 92 62 72 237 288 324 338 329 12 5 20 358 81 75 77 95 98 91 88
142 145 140 130 124 119 114 114 114 113 112 108 103 92 74 43 47 37 58 54 54 66 110 83 134 210 10 48 42 27 32 63 304 93 76 97 97 225 351 322 320 313 296 308 52 75 83 86 87 79 73 66 79 105
136 136 134 133 128 126 125 125 123 119 115 105 77 48 36 8 36 24 32 26 18 356 33 82 93 104 49 12 46 71 14 94 131 256 30 92 264 83 14 359 355 355 328 142 106 82 90 84 71 67 75 79 180 204
136 134 135 135 135 132 135 138 136 130 105 45 50 79 94 36 55 32 48 62 339 32 24 98 138 120 350 110 130 73 132 56 188 263 197 243 318 55 8 50 49 57 66 70 79 81 82 90 103 112 143 194 180 190
92 106 127 140 140 137 144 142 129 85 82 90 109 102 60 35 44 72 35 357 43 192 358 86 51 69 44 76 98 36 114 92 225 167 116 229 97 98 57 57 62 72 80 85 91 101 117 134 153 176 170 186 225 301
84 85 90 103 130 140 142 132 112 115 101 74 56 58 55 327 73 122 160 188 130 167 20 85 55 63 46 52 71 109 145 215 94 184 207 70 129 125 85 64 63 50 70 93 106 126 136 131 122 106 96 31 1 328
77 77 77 76 83 104 118 130 124 94 59 58 46 62 41 69 64 105 78 97 107 108 87 84 69 72 360 59 74 137 102 103 213 216 214 92 107 89 85 90 104 61 47 78 76 84 88 87 50 21 6 351 345 343
73 70 71 63 71 81 91 89 82 77 62 68 21 93 77 100 49 46 59 82 18 93 67 78 65 68 45 94 38 88 51 279 177 205 46 105 111 121 86 92 101 83 48 59 54 41 20 354 341 330 339 332 314 309
70 59 35 37 52 78 96 93 63 76 62 69 57 92 80 82 74 49 46 76 14 65 45 45 93 78 65 119 81 203 136 216 213 152 145 120 155 174 182 191 193 72 55 42 21 7 358 355 343 328 328 339 342 334
65 33 19 24 47 68 74 66 50 50 79 52 49 38 78 80 90 91 83 95 45 76 97 105 81 176 87 62 66 94 175 166 139 147 185 195 185 202 216 187 138 57 43 24 13 16 13 8 10 12 3 346 342 336
47 29 24 21 37 52 46 40 76 69 65 37 68 31 44 42 96 73 80 34 61 73 81 184 128 100 161 160 249 227 198 123 112 135 155 188 165 131 141 95 52 48 42 45 45 39 31 24 24 9 357 344 338 339
36 25 23 22 34 66 64 34 41 84 60 72 71 32 55 69 51 66 74 69 72 97 107 45 77 167 229 222 167 168 152 181 153 91 69 72 92 96 89 82 76 69 60 49 41 38 33 32 22 3 346 340 334 333
38 29 30 34 50 65 59 15 46 85 76 99 54 44 64 59 337 30 46 49 46 39 46 93 205 218 186 249 195 179 169 136 116 92 58 44 85 87 74 69 61 61 56 47 44 34 23 16 11 360 353 341 334 329
24 17 21 36 50 48 77 3 58 61 116 73 119 59 57 21 40 38 10 20 54 123 268 236 239 283 93 74 65 94 74 105 88 132 146 117 82 82 68 54 59 57 52 35 31 19 15 3 348 344 343 334 328 327
6 8 31 31 47 41 69 20 36 341 57 106 75 81 93 78 46 31 303 59 199 260 9 340 31 107 68 57 55 68 87 90 84 80 88 106 70 61 58 44 57 54 48 33 17 2 352 348 345 344 342 336 334 327
14 28 43 25 60 38 324 351 61 9 97 143 38 68 84 117 37 355 20 311 78 52 359 64 65 95 99 92 80 66 72 82 74 72 80 84 83 82 81 63 52 46 30 14 5 352 344 346 346 345 344 339 337 331
26 46 31 38 47 33 347 10 6 41 26 133 162 164 143 129 18 81 232 248 71 32 44 112 115 104 90 71 63 56 48 79 82 72 73 88 83 69 74 72 50 36 21 357 357 352 350 348 348 347 345 342 339 330
69 352 75 356 5 65 39 5 353 31 304 287 105 252 213 64 105 210 245 19 37 29 28 66 83 83 96 94 87 63 57 76 94 87 58 79 101 95 69 50 36 17 4 357 353 347 346 348 347 346 343 343 338 335
63 330 76 192 304 79 194 36 247 229 197 271 230 189 74 118 135 192 73 12 39 27 20 38 84 91 68 70 87 59 32 67 116 97 85 82 73 72 65 42 9 360 359 354 345 343 341 342 340 341 345 348 352 350
34 328 302 343 102 82 343 316 242 177 252 238 194 196 177 197 137 70 76 12 60 50 62 67 77 92 106 96 78 61 55 96 124 124 124 101 76 55 40 34 6 346 344 343 342 338 334 334 337 341 343 348 360 354
200 116 104 289 348 216 262 300 261 237 263 1 103 41 28 33 77 24 26 74 99 95 87 85 92 102 100 90 79 78 96 115 118 112 109 93 44 36 15 6 356 348 343 342 338 337 338 336 336 337 340 343 338 343
341 297 81 319 299 25 53 10 346 357 336 278 93 85 86 60 4 2 35 101 111 104 98 97 96 100 96 90 84 81 85 129 183 52 29 299 338 344 346 348 347 347 345 343 346 344 344 340 340 341 339 341 343 346
295 345 84 8 72 60 269 272 285 352 44 71 95 95 79 56 19 47 87 95 97 97 100 102 114 127 116 107 103 83 67 54 42 41 178 252 309 329 335 340 343 345 345 344 344 348 352 349 349 353 356 360 3 4
287 39 47 84 149 255 255 288 291 96 102 77 49 78 97 125 66 57 77 91 96 98 96 94 91 90 87 76 59 49 67 17 2 348 337 327 321 326 333 337 340 341 341 342 346 347 347 351 355 358 1 5 6 4
19 29 69 5 331 335 19 27 357 29 18 83 59 69 35 54 34 31 25 52 74 74 67 56 53 70 57 46 33 23 353 341 337 334 334 329 325 330 331 335 337 338 338 341 346 348 347 349 354 357 357 358 359 359
17 23 40 32 354 5 26 66 24 5 23 60 20 94 105 123 153 154 65 81 76 60 47 35 34 57 38 5 341 340 338 337 334 330 332 329 327 325 326 331 333 334 334 336 341 344 344 345 349 350 350 351 353 352